Regional Weather Roundup
Issued by NWS

Home | Current Version | Previous Version | Text Only | Print | Product List | Glossary On
Versions: 1 2 3 4 5 6 7 8 9 10 11 12 13 14 15 16 17 18 19 20 21 22 23 24 25 26 27 28 29 30 31 32 33 34 35 36 37 38 39 40 41 42 43 44 45 46 47 48 49 50
000
ASUS43 KOAX 011810
RWRNE

WEATHER ROUNDUP FOR NEBRASKA
NATIONAL WEATHER SERVICE OMAHA NE
100 PM CDT SUN MAY 01 2016

NOTES: SATELLITE DATA IS BEING USED TO AUGMENT CLOUD COVER ABOVE
       12000 FEET.
       "FAIR" INDICATES FEW OR NO CLOUDS BELOW 12,000 FEET WITH NO
       SIGNIFICANT WEATHER AND/OR OBSTRUCTIONS TO VISIBILITY.

  * THESE STATIONS DO NOT REPORT WEATHER SUCH AS RAIN...SNOW OR FOG.

NEZ001>004-019>022-054>056-011900-
NEBRASKA PANHANDLE

CITY           SKY/WX    TMP DP  RH WIND       PRES   REMARKS
SCOTTSBLUFF    MOSUNNY   50  27  40 NE8       30.32F
6HR MIN TEMP:  37; 6HR MAX TEMP:  50;

ALLIANCE       PTSUNNY   38  32  79 W9        30.30S WCI  31
6HR MIN TEMP:  34; 6HR MAX TEMP:  40;

CHADRON        MOSUNNY   51  30  44 N13G22    30.31F
6HR MIN TEMP:  34; 6HR MAX TEMP:  52;

KIMBALL        CLOUDY    39  31  73 NW7       30.32S WCI  34
SIDNEY         CLOUDY    40  32  73 N10       30.31F WCI  33
6HR MIN TEMP:  34; 6HR MAX TEMP:  40;

$$

NEZ057>060-069>072-079>082-011900-
SOUTHWEST NEBRASKA

CITY           SKY/WX    TMP DP  RH WIND       PRES   REMARKS
NORTH PLATTE   CLOUDY    48  35  60 N23G32    30.24F
6HR MIN TEMP:  37; 6HR MAX TEMP:  49;

IMPERIAL       CLOUDY    49  32  52 N29G35    30.27F
6HR MIN TEMP:  36; 6HR MAX TEMP:  49; 6HR PCP: TRACE;

LEXINGTON      CLOUDY    47  39  74 N18       30.20S
MCCOOK         CLOUDY    48  38  68 N16       30.22F
6HR MIN TEMP:  37; 6HR MAX TEMP:  51;

OGALLALA       SUNNY     49  32  52 N17G24    30.29S
$$

NEZ005>010-023>029-035>040-094-011900-
NORTH CENTRAL NEBRASKA

CITY           SKY/WX    TMP DP  RH WIND       PRES   REMARKS
VALENTINE      PTSUNNY   51  31  46 N17G25    30.26S
6HR MIN TEMP:  36; 6HR MAX TEMP:  52;

AINSWORTH      MOSUNNY   51  33  48 N23G31    30.24S
BROKEN BOW     PTSUNNY   50  39  66 N18G29    30.20S
6HR MIN TEMP:  40; 6HR MAX TEMP:  49; 6HR PCP:  0.01;

O`NEILL        PTSUNNY   49  39  68 N15       30.22S
ORD            CLOUDY    46  40  79 N18       30.20R
6HR MIN TEMP:  41; 6HR MAX TEMP:  46; 6HR PCP:  0.02;

THEDFORD       MOSUNNY   50  36  59 N21G26    30.25F
$$

NEZ041-046>049-061>064-073>077-083>087-011900-
SOUTH CENTRAL NEBRASKA

CITY           SKY/WX    TMP DP  RH WIND       PRES   REMARKS
GRAND ISLAND   CLOUDY    45  40  82 N22G28    30.16S
6HR MIN TEMP:  40; 6HR MAX TEMP:  46; 6HR PCP:  0.05;

AURORA         CLOUDY    45  42  88 N21G26    30.15R
HASTINGS       CLOUDY    46  39  76 N23G29    30.16R
6HR MIN TEMP:  40; 6HR MAX TEMP:  49; 6HR PCP:  0.01;

HEBRON         CLOUDY    47  41  81 N13       30.12R
HOLDREGE       CLOUDY    45  40  82 N14       30.19R
KEARNEY *      CLOUDY    46  37  71 N21G28    30.18S
YORK           CLOUDY    46  41  81 N18G26    30.13S
$$

NEZ011>018-030>034-042>045-011900-
NORTHEAST NEBRASKA

CITY           SKY/WX    TMP DP  RH WIND       PRES   REMARKS
NORFOLK        CLOUDY    44  40  85 N18       30.17S
6HR MIN TEMP:  41; 6HR MAX TEMP:  44; 6HR PCP:  0.13;

ALBION         CLOUDY    44  42  93 N17G23    30.18S
BLAIR          CLOUDY    45  44  95 N12G17    30.10S FOG
COLUMBUS *     CLOUDY    46  37  71 N15G23    30.15S
FREMONT        LGT RAIN  46  43  91 N12G18    30.13S
TEKAMAH        LGT RAIN  46  43  89 N18       30.13R
6HR MIN TEMP:  43; 6HR MAX TEMP:  46; 6HR PCP:  0.05;

WAYNE          DRIZZLE   46  43  87 N16       30.17F
$$

NEZ050>053-065>068-078-088>093-011900-
SOUTHEAST NEBRASKA

CITY           SKY/WX    TMP DP  RH WIND       PRES   REMARKS
LINCOLN        CLOUDY    49  43  80 N17       30.12R
6HR MIN TEMP:  44; 6HR MAX TEMP:  48; 6HR PCP:  0.03;

OMAHA EPPLEY   LGT RAIN  47  44  90 N15       30.10S FOG
6HR MIN TEMP:  45; 6HR MAX TEMP:  48; 6HR PCP:  0.06;

BEATRICE       CLOUDY    48  44  85 N16G24    30.09S
FALLS CITY     CLOUDY    52  46  80 N14       30.04R
6HR MIN TEMP:  50; 6HR MAX TEMP:  52; 6HR PCP: TRACE;

NEBRASKA CITY  CLOUDY    47  47 100 N14       30.08R
PLATTSMOUTH    CLOUDY    46  45  95 N9        30.09R
$$

NEZ044-045-051>053-067-011900-
OMAHA AREA

CITY           SKY/WX    TMP DP  RH WIND       PRES   REMARKS
OMAHA EPPLEY   LGT RAIN  47  44  90 N15       30.10S FOG
6HR MIN TEMP:  45; 6HR MAX TEMP:  48; 6HR PCP:  0.06;

BLAIR          CLOUDY    45  44  95 N12G17    30.10S FOG
FREMONT        LGT RAIN  46  43  91 N12G18    30.13S
MILLARD        DRIZZLE   46  44  93 N6        30.11R
OFFUTT AFB     LGT RAIN  46  45  93 N12G20    30.09R
PLATTSMOUTH    CLOUDY    46  45  95 N9        30.09R
WAHOO          CLOUDY    46  43  86 N18       30.12S
$$




USA.gov is the U.S. government's official web portal to all federal, state and local government web resources and services.